SCP
0 0 0 0 0 0 0 0 0 0 0 0 0 0 0 0 0 0 0 0 0 0 0 0 0 0 0 0 0 0 0 0 0 0 0 0 0 0 0 0 0 0 0
0 0 0 0 0 0 0 0 0 0 0 0 0 0 0 0 0 0 0 0 0 0 0 0 0 0 0 0 0 0 0 0 0 0 0 0 0 0 0 0 0 0 0
0 0 0 0 0 0 0 0 0 0 0 0 0 0 0 0 0 0 0 0 0 0 0 0 0 0 0 0 0 0 0 0 0 0 0 0 0 0 0 0 0 0 0
0 0 0 0 0 0 0 0 0 0 0 0 0 0 0 0 0 0 0 0 0 0 0 0 0 0 0 0 0 0 0 0 0 0 0 0 0 0 0 0 0 0 0
0 0 0 0 0 0 0 0 0 0 0 0 0 0 0 0 0 0 0 0 0 0 0 0 0 0 0 0 0 0 0 0 0 0 0 0 0 0 0 0 0 0 0
0 0 0 0 0 0 0 0 0 0 0 0 0 0 0 0 0 0 0 0 0 0 0 0 0 0 0 0 0 0 0 0 0 0 0 0 0 0 0 0 0 0 0
0 0 0 0 0 0 0 0 0 0 0 0 0 0 0 0 0 0 0 0 0 0 0 0 0 0 0 0 0 0 0 0 0 0 0 0 0 0 0 0 0 0 0
0 0 0 0 0 0 0 0 0 0 0 0 0 0 0 0 0 0 0 0 0 0 0 0 0 0 0 0 0 0 0 0 0 0 0 0 0 0 0 0 0 0 0
0 0 0 0 0 0 0 0 0 0 0 0 0 0 0 0 0 0 0 0 0 0 0 0 0 0 0 0 0 0 0 0 0 0 0 0 0 0 0 0 0 0 0
0 0 0 0 0 0 0 0 0 0 0 0 0 0 0 0 0 0 0 0 0 0 0 0 0 0 0 0 0 0 0 0 0 0 0 0 0 0 0 0 0 0 0
0 0 0 0 0 0 0 0 0 0 0 0 0 0 0 0 0 0 0 0 0 0 0 0 0 0 0 0 0 0 0 0 0 0 0 0 0 0 0 0 0 0 0
0 0 0 0 0 0 0 0 0 0 0 0 0 0 0 0 0 0 0 0 0 0 0 0 0 0 0 0 0 0 0 0 0 0 0 0 0 0 0 0 0 0 0
0 0 0 0 0 0 0 0 0 0 0 0 0 0 0 0 0 0 0 0 0 0 0 0 0 0 0 0 0 0 0 0 0 0 0 0 0 0 0 0 0 0 0
0 0 0 0 0 0 0 0 0 0 0 0 0 0 0 0 0 0 0 0 0 0 0 0 0 0 0 0 0 0 0 0 0 0 0 0 0 0 0 0 0 0 0
0 0 0 0 0 0 0 0 0 0 0 0 0 0 0 0 0 0 0 0 0 0 0 0 0 0 0 0 0 0 0 0 0 0 0 0 0 0 0 0 0 0 0
0 0 0 0 0 0 0 0 0 0 0 0 0 0 0 0 0 0 0 0 0 0 0 0 0 0 0 0 0 0 0 0 0 0 0 0 0 0 0 0 0 0 0
0 0 0 0 0 0 0 0 0 0 0 0 0 0 0 0 0 0 0 0 0 0 0 0 0 0 0 0 0 0 0 0 0 0 0 0 0 0 0 0 0 0 0
0 0 0 0 0 0 0 0 0 0 0 0 0 0 0 0 0 0 0 0 0 0 0 0 0 0 0 0 0 0 0 0 0 0 0 0 0 0 0 0 0 0 0
0 0 0 0 0 0 0 0 0 0 0 0 0 0 0 0 0 0 0 0 0 0 0 0 0 0 0 0 0 0 0 0 0 0 0 0 0 0 0 0 0 0 0
0 0 0 0 0 0 0 0 0 0 0 0 0 0 0 0 0 0 0 0 0 0 0 0 0 0 0 0 0 0 0 0 0 0 0 0 0 0 0 0 0 0 0
0 0 0 0 0 0 0 0 0 0 0 0 0 0 0 0 0 0 0 0 0 0 0 0 0 0 0 0 0 0 0 0 0 0 0 0 0 0 0 0 0 0 0
0 0 0 0 0 0 0 0 0 0 0 0 0 0 0 0 0 0 0 0 0 0 0 0 0 0 0 0 0 0 0 0 0 0 0 0 0 0 0 0 0 0 0
0 0 0 0 0 0 0 0 0 0 0 0 0 0 0 0 0 0 0 0 0 0 0 0 0 0 0 0 0 0 0 0 0 0 0 0 0 0 0 0 0 0 0
0 0 0 0 0 0 0 0 0 0 0 0 0 0 0 0 0 0 0 0 0 0 0 0 0 0 0 0 0 0 0 0 0 0 0 0 0 0 0 0 0 0 0
0 0 0 0 0 0 0 0 0 0 0 0 0 0 0 0 0 0 0 0 0 0 0 0 0 0 0 0 0 0 0 0 0 0 0 0 0 0 0 0 0 0 0
0 0 0 0 0 0 0 0 0 0 0 0 0 0 0 0 0 0 0 0 0 0 0 0 0 0 0 0 0 0 0 0 0 0 0 0 0 0 0 0 0 0 0
Wind_Speed
17 17 17 16 16 16 14 15 14 13 13 14 14 14 14 13 13 12 10 10 11 9 8 8 8 7 5 5 4 4 5 5 7 6 5 5 7 8 7 8 8 9 9
15 15 16 15 15 15 14 14 14 13 13 13 13 13 13 13 13 13 12 11 11 10 10 9 8 6 7 6 5 6 5 6 6 8 6 6 8 8 9 9 8 8 9
13 14 14 15 15 15 14 13 13 13 12 12 12 13 12 12 12 12 12 11 11 10 10 10 9 8 8 6 6 5 5 5 5 6 7 5 6 6 8 9 10 9 9
13 14 14 15 14 14 13 13 13 13 12 12 12 12 11 11 11 11 10 10 10 9 9 8 8 9 8 7 6 6 5 5 5 6 6 6 6 7 7 7 8 8 8
13 13 13 13 12 12 12 12 12 11 11 11 11 11 10 9 9 10 9 9 9 8 7 7 7 7 7 6 5 5 5 4 4 5 6 6 6 6 6 7 8 9 9
12 12 12 12 12 12 12 12 12 11 11 11 11 11 10 8 10 13 11 9 8 8 8 7 6 7 8 9 8 7 7 6 5 5 6 7 8 8 7 7 8 9 8
12 12 12 12 12 12 12 12 12 12 11 11 11 10 10 10 13 14 12 8 8 8 7 7 5 5 7 6 8 9 9 9 8 6 7 8 8 7 8 9 8 9 10
12 12 12 12 12 12 12 12 12 10 11 10 10 10 9 9 13 14 13 8 7 7 6 6 6 6 5 5 5 5 6 6 7 6 7 8 8 8 7 8 9 9 10
12 12 13 13 13 13 13 12 11 10 10 9 9 9 9 9 12 13 12 7 5 6 5 5 5 5 6 6 5 5 5 5 5 8 9 9 10 10 9 6 6 7 9
12 12 12 13 13 13 13 12 10 9 9 8 8 8 8 8 12 13 12 6 6 5 4 4 5 5 6 7 5 5 5 5 4 5 6 7 7 7 8 7 6 7 8
12 12 12 12 13 13 12 10 10 9 9 9 8 7 7 7 11 13 12 6 6 5 4 4 4 7 6 7 5 4 4 4 4 4 5 5 5 4 4 4 4 5 7
12 12 12 12 11 10 12 11 11 11 10 9 8 7 5 6 7 10 12 8 6 5 4 3 3 6 6 6 5 3 3 3 3 3 4 4 4 4 4 4 5 6 7
14 13 12 12 11 11 12 12 11 10 8 8 7 7 6 5 6 9 11 9 7 4 3 4 4 5 5 5 3 3 3 2 3 4 4 5 4 4 4 4 4 5 6
15 13 12 12 11 11 9 9 9 9 8 8 7 7 6 5 5 6 6 6 6 4 3 4 5 5 3 2 2 2 2 2 3 4 5 4 4 4 4 4 5 5 5
14 13 12 11 11 10 8 6 7 6 7 9 8 7 8 7 7 8 6 5 5 4 4 3 3 3 2 2 2 2 2 2 3 3 4 4 4 4 4 4 4 5 5
14 13 11 10 10 9 9 8 8 7 9 8 8 8 6 7 11 11 9 8 9 9 5 3 3 3 3 2 2 2 2 3 3 3 4 4 4 4 4 4 4 5 6
15 14 11 11 10 10 10 10 9 9 10 10 11 10 9 11 12 11 10 10 10 9 4 3 3 3 2 2 2 3 3 3 3 3 4 4 4 4 4 5 5 5 6
14 13 12 11 10 10 10 9 9 10 9 7 8 10 11 11 11 11 11 9 6 5 3 3 2 2 2 2 2 3 3 3 3 3 4 4 4 4 4 5 5 5 6
14 11 11 10 10 9 9 9 9 9 8 8 7 7 9 10 10 9 9 4 4 4 3 2 2 2 2 2 2 3 3 3 3 3 4 4 4 4 4 5 5 7 6
11 14 13 11 10 10 9 9 9 8 8 7 7 7 7 6 5 6 4 3 3 3 3 3 2 2 2 3 3 3 3 3 3 3 4 4 4 4 5 5 5 5 5
12 13 15 11 10 9 9 9 8 8 7 7 6 6 8 5 5 5 4 3 3 3 3 3 3 3 3 3 3 3 4 3 3 3 3 4 4 4 4 4 5 5 5
12 11 10 10 9 9 8 8 8 7 8 8 6 6 8 5 4 4 3 3 2 2 2 2 3 3 3 3 3 3 3 4 3 3 3 4 4 4 4 4 4 4 4
12 12 10 9 9 12 9 8 7 7 7 7 7 6 5 4 4 3 3 3 2 2 2 2 3 3 2 2 3 3 4 4 3 3 4 4 4 4 4 4 5 5 5
12 12 11 10 9 9 8 8 7 7 7 6 6 5 5 4 3 3 3 2 2 2 2 2 3 3 4 3 3 3 3 3 4 4 5 5 4 4 4 4 4 4 4
11 11 11 10 9 9 8 8 7 7 6 6 5 5 4 4 3 3 2 2 2 2 3 3 2 3 4 5 4 4 5 6 6 5 4 5 5 5 5 5 4 4 4
11 10 9 8 8 8 8 8 7 7 6 5 5 4 4 4 3 3 2 2 2 2 2 3 3 4 4 4 5 6 7 7 8 8 5 4 5 4 4 4 5 4 4
Wind_Direction
195 195 196 198 198 198 198 197 196 194 190 190 189 191 190 189 188 189 189 184 191 189 188 196 198 192 192 196 202 213 225 236 258 272 271 275 276 278 281 284 288 289 289
191 191 193 194 193 195 195 194 192 191 189 188 186 188 189 188 188 190 188 187 190 191 191 195 197 191 200 200 205 216 225 233 253 274 279 281 280 285 288 290 290 289 289
184 186 187 189 190 192 191 188 187 186 185 184 183 186 186 186 188 192 190 189 193 194 192 195 195 193 204 205 211 220 229 238 249 266 281 286 285 286 291 289 289 289 291
178 182 185 186 187 186 184 182 181 181 180 179 180 183 184 183 185 187 188 188 190 192 193 195 195 197 206 207 212 222 227 237 249 261 275 283 286 292 293 294 296 295 297
175 179 181 179 177 176 175 174 174 174 175 174 174 176 178 178 182 181 181 183 185 186 187 193 196 199 207 207 211 217 218 233 246 259 271 281 284 291 291 295 296 302 301
173 174 171 171 169 170 169 168 167 167 167 167 172 173 175 177 175 178 178 180 183 185 186 191 194 198 205 213 221 225 226 235 245 257 268 274 283 291 296 296 298 302 303
168 167 167 167 167 167 164 165 166 166 164 166 169 172 176 174 171 176 175 178 183 188 188 187 187 199 203 215 223 229 235 242 250 260 268 275 287 293 296 293 292 294 295
165 166 166 166 165 164 164 167 166 164 164 165 168 170 170 167 168 173 173 180 182 185 187 188 190 195 199 211 222 231 241 245 250 258 268 278 286 294 294 292 295 295 294
168 168 168 166 164 164 166 166 161 159 160 161 163 165 166 164 167 170 169 174 178 183 184 189 194 198 196 201 216 230 248 259 257 265 277 283 289 291 293 294 295 294 298
171 168 165 165 165 166 165 159 155 155 154 151 153 160 163 162 165 169 170 170 176 176 180 186 194 204 195 195 217 229 248 265 269 270 271 275 279 281 284 284 290 293 300
161 159 161 164 164 162 157 152 150 147 145 145 145 150 157 158 163 169 173 175 175 173 177 183 190 200 201 202 221 239 258 279 275 274 277 280 282 283 285 287 286 283 288
153 154 158 159 154 154 150 148 148 146 145 146 146 145 149 154 161 171 176 174 168 172 178 181 183 193 200 203 218 247 258 266 271 274 277 281 286 289 292 292 287 280 277
152 153 153 151 151 153 152 150 149 151 151 152 153 153 151 152 156 166 173 172 169 168 161 159 169 183 192 199 213 233 239 255 269 275 280 286 293 298 299 297 292 286 284
152 151 151 149 148 148 148 150 153 158 157 156 158 156 152 153 153 158 164 165 162 153 143 147 154 159 173 190 204 219 246 264 276 279 286 293 298 297 294 298 300 304 298
150 148 149 148 146 144 141 143 152 156 162 161 161 158 158 164 167 163 160 161 161 155 142 143 161 174 191 201 214 235 254 265 272 281 287 292 295 296 297 302 300 298 296
150 151 151 148 145 141 135 114 85 109 119 124 134 144 144 144 151 158 155 150 150 151 152 171 186 197 210 219 231 246 256 267 276 283 285 289 293 295 297 299 296 294 297
154 152 149 149 147 146 144 139 128 104 104 115 126 131 135 143 149 153 151 147 152 157 169 185 199 208 217 227 239 250 260 271 279 277 280 284 287 290 292 294 296 298 299
150 147 147 148 148 148 146 143 141 140 136 125 125 131 134 139 145 148 146 142 154 168 188 196 205 212 221 232 243 255 265 270 268 272 276 279 281 285 288 293 296 300 301
147 147 144 142 141 140 139 137 136 136 135 134 133 132 134 134 136 143 150 160 170 181 190 200 208 216 228 236 245 253 259 264 270 273 274 277 278 281 286 292 295 299 297
141 139 139 138 137 137 139 139 139 140 140 144 148 147 145 145 150 156 164 170 177 185 193 203 209 219 229 236 242 248 255 260 261 263 272 275 276 278 282 286 290 295 295
137 137 134 134 137 140 142 142 142 143 145 146 147 153 160 159 161 166 173 179 185 191 198 209 216 220 228 235 241 246 252 259 262 265 270 273 275 277 281 284 288 289 293
136 138 139 138 137 138 139 139 139 141 144 143 142 150 158 155 159 166 171 177 184 194 203 214 224 228 232 236 240 247 252 258 262 264 267 270 271 274 280 284 289 293 293
133 133 132 132 132 135 134 135 138 142 144 146 147 152 159 161 161 165 169 175 180 195 205 215 226 232 234 238 242 246 251 255 260 264 267 269 269 272 276 281 284 288 292
133 134 134 134 134 137 137 138 139 141 143 146 150 154 157 157 160 165 173 178 188 202 211 219 229 234 241 249 248 246 250 256 258 252 251 256 263 268 271 274 277 284 286
131 132 134 136 137 137 137 138 139 142 144 147 149 151 153 156 162 169 178 185 198 211 222 231 232 234 239 248 253 255 255 259 260 258 247 246 251 256 261 265 268 276 279
128 129 130 132 134 137 139 140 142 145 146 147 150 153 157 162 168 175 182 191 201 215 228 234 235 245 251 253 253 256 259 261 260 258 255 247 248 250 250 254 260 265 272